EHI
0 0 0 0 0 0 0 0 0 0 0 0 0 1 11 37 70 89 89 81 71 58 45 34 27 32 46 55 60 67 72 74 68 50 29 13 6 4 1 0 0 0 0 0
0 0 0 0 0 0 0 0 0 0 0 0 0 1 8 27 54 75 80 75 68 59 51 45 43 48 58 67 73 75 74 70 63 51 35 22 15 8 3 0 0 0 0 0
0 0 0 0 0 0 0 0 0 0 0 0 0 1 4 13 31 51 65 68 65 65 66 67 70 72 75 78 79 75 64 51 43 38 33 25 16 9 2 0 0 0 0 0
0 0 0 0 0 0 0 0 0 0 0 0 0 0 1 4 14 34 58 71 73 76 81 83 83 82 80 76 69 57 41 28 21 20 19 14 9 4 1 0 0 0 0 0
0 0 0 0 0 0 0 0 0 0 0 0 0 0 0 1 6 24 53 73 77 75 73 70 66 64 62 56 45 31 19 13 10 8 6 5 2 1 0 0 0 0 0 0
0 0 0 0 0 0 0 0 0 0 0 0 0 0 0 1 3 13 36 55 57 51 44 36 31 29 29 26 19 11 6 3 3 2 1 1 1 0 0 0 0 0 0 0
0 0 0 0 0 0 0 0 0 0 0 0 0 0 0 1 2 6 17 27 27 23 17 11 7 6 6 5 4 2 0 0 0 0 0 0 0 0 0 0 0 0 0 0
0 0 0 0 0 0 0 0 0 0 0 0 0 0 0 0 1 3 7 10 8 6 4 2 1 1 0 0 0 0 0 0 0 0 0 0 0 0 0 0 0 0 0 0
0 0 0 0 0 0 0 0 0 0 0 0 0 0 0 0 0 1 3 3 1 0 0 0 0 0 0 0 0 0 0 0 0 0 0 0 0 0 0 0 0 0 0 0
0 0 0 0 0 0 0 0 0 0 0 0 0 0 0 0 0 0 0 0 0 0 0 0 0 0 0 0 0 0 0 0 0 0 0 0 0 0 0 0 0 0 0 0
0 0 0 0 0 0 0 0 0 0 0 0 0 0 0 0 0 0 0 0 0 0 0 0 0 0 0 0 0 0 0 0 0 0 0 0 0 0 0 0 0 0 0 0
0 0 0 0 0 0 0 0 0 0 0 0 0 0 0 0 0 0 0 0 0 0 0 0 0 0 0 0 0 0 0 0 0 0 0 0 0 0 0 0 0 0 0 0
0 0 0 0 0 0 0 0 0 0 0 0 0 0 0 0 0 0 0 0 1 1 0 0 0 0 0 0 0 0 0 0 0 0 0 0 0 0 0 0 0 0 0 0
0 0 0 0 0 0 0 0 0 0 0 0 0 0 0 0 0 0 0 1 2 1 0 0 0 0 0 0 0 0 0 0 0 0 0 0 0 0 0 0 0 0 0 0
0 0 0 0 0 0 0 0 0 0 0 0 0 0 0 0 0 0 0 1 1 1 0 0 0 0 0 0 0 0 0 0 0 0 0 0 0 0 0 0 0 0 0 0
0 0 0 0 0 0 0 0 0 0 0 0 0 0 0 0 0 0 0 0 0 0 0 0 0 0 0 0 0 0 0 0 0 0 0 0 0 0 0 0 0 0 0 0
0 0 0 0 0 0 0 0 0 0 0 0 0 0 0 0 0 0 0 0 0 0 0 0 0 0 0 0 0 0 0 0 0 0 0 0 0 0 0 0 0 0 0 0
0 0 0 0 0 0 0 0 0 0 0 0 0 0 0 0 0 0 0 0 0 0 0 0 0 0 0 0 0 0 0 0 0 0 0 0 0 0 0 0 0 0 0 0
0 0 0 0 0 0 0 0 0 0 0 0 0 0 0 0 0 0 0 0 0 0 0 0 0 0 0 0 0 0 0 0 0 0 0 0 0 0 0 0 0 0 0 0
0 0 0 0 0 0 0 0 0 0 0 0 0 0 0 0 0 0 0 0 0 0 0 0 0 0 0 0 0 0 0 0 0 0 0 0 0 0 0 0 0 0 0 0
0 0 0 0 0 0 0 0 0 0 0 0 0 0 0 0 0 0 0 0 0 0 0 0 0 0 0 0 0 0 0 0 0 0 0 0 0 0 0 0 0 0 0 0
0 0 0 0 0 0 0 0 0 0 0 0 0 0 0 0 0 0 0 0 0 0 0 0 0 0 0 0 0 0 0 0 0 0 0 0 0 0 0 0 0 0 0 0
0 0 0 0 0 0 0 0 0 0 0 0 0 0 0 0 0 0 0 0 0 0 0 0 0 0 0 0 0 0 0 0 0 0 0 0 0 0 0 0 0 0 0 0
0 0 0 0 0 0 0 0 0 0 0 0 0 0 0 0 0 0 0 0 0 0 0 0 0 0 0 0 0 0 0 0 0 0 0 0 0 0 0 0 0 0 0 0
0 0 0 0 0 0 0 0 0 0 0 0 0 0 0 0 0 0 0 0 0 0 0 0 0 0 0 0 0 0 0 0 0 0 0 0 0 0 0 0 0 0 0 0
0 0 0 0 0 0 0 0 0 0 0 0 0 0 0 0 0 0 0 0 0 0 0 0 0 0 0 0 0 0 0 0 0 0 0 0 0 0 0 0 0 0 0 0
Wind_Speed
3 3 4 9 9 10 8 8 8 8 7 4 6 11 13 11 14 14 13 14 14 13 13 13 12 11 9 8 7 7 5 5 4 3 3 2 1 0 1 1 2 2 2 2
2 5 12 11 9 8 6 4 5 6 7 6 5 6 2 8 13 17 18 17 17 15 13 13 11 9 7 6 6 5 4 4 4 3 3 3 3 2 1 2 3 4 3 4
2 6 5 2 3 4 4 3 3 4 7 8 8 10 6 2 2 8 12 13 15 18 17 14 10 7 7 6 5 5 5 4 4 4 4 3 3 2 2 3 3 4 4 5
3 4 6 5 4 4 4 4 3 5 7 5 6 5 9 4 3 1 4 5 7 8 10 10 11 10 9 8 7 7 6 5 4 4 4 4 3 2 1 1 2 4 5 5
5 5 5 5 5 5 4 4 3 3 3 4 5 1 9 6 5 3 3 6 7 6 5 4 6 9 10 9 8 7 6 5 4 4 5 5 4 2 1 1 3 3 4 5
6 5 3 3 5 4 4 7 8 7 6 4 5 3 8 4 5 3 5 8 9 9 8 6 5 3 5 7 7 7 6 4 4 5 5 5 5 3 1 1 2 3 3 4
5 6 3 1 4 7 8 7 6 7 6 5 5 4 6 6 10 3 7 8 8 7 7 6 5 5 3 4 5 6 6 4 4 5 5 5 4 3 2 0 2 2 3 3
2 6 3 1 2 1 2 6 5 3 4 5 5 4 4 8 9 9 7 6 5 5 5 4 3 3 3 3 4 5 6 5 4 4 3 3 4 2 1 2 2 2 2 3
1 4 4 3 2 3 3 3 4 5 1 3 5 5 3 6 6 5 4 3 1 1 2 2 2 3 3 3 4 5 6 4 3 3 2 2 3 3 2 2 2 2 2 3
2 3 5 3 6 8 6 6 5 5 0 4 5 5 5 4 3 2 2 3 3 3 3 1 1 2 1 1 2 3 4 3 2 2 1 3 3 2 2 1 0 2 3 3
3 2 4 4 2 2 3 5 6 4 4 4 4 8 6 5 3 2 3 5 5 4 5 3 1 1 1 1 2 3 3 3 2 1 2 3 3 3 3 1 2 2 3 3
4 6 0 4 4 2 5 7 8 6 5 5 3 10 7 6 5 5 5 6 6 5 5 3 3 3 2 2 3 4 3 3 2 1 2 3 4 4 3 1 1 2 2 3
6 7 3 8 7 4 2 3 4 5 5 5 5 11 5 3 5 6 7 6 5 4 4 3 3 3 4 3 4 4 4 3 3 2 1 3 3 3 2 1 1 1 2 3
7 6 7 7 7 5 5 4 5 7 5 6 9 12 9 7 7 7 7 7 6 5 4 3 4 4 4 3 3 3 3 2 2 2 1 3 3 3 2 1 1 2 3 5
6 4 5 7 7 6 7 8 7 8 9 9 9 8 10 7 6 6 6 5 6 5 4 4 5 3 3 3 2 2 2 2 1 1 2 2 3 3 2 2 2 3 4 5
4 5 3 2 5 6 9 9 7 8 7 7 5 7 6 4 2 1 3 4 5 4 4 5 5 4 3 2 2 1 1 2 1 2 2 2 2 3 3 3 3 4 5 5
4 6 4 4 4 5 7 8 8 6 6 6 7 8 4 3 4 5 5 5 5 5 5 6 5 4 3 2 1 1 1 1 1 3 3 3 4 4 4 4 5 5 5 5
7 6 4 3 2 5 10 8 7 7 5 5 5 5 7 7 6 6 7 6 6 5 5 5 5 4 3 3 2 2 2 1 2 3 3 4 5 5 4 4 5 4 4 4
9 8 5 4 3 7 9 5 5 5 3 3 5 6 7 6 2 3 7 7 7 6 6 5 5 5 4 4 3 3 2 2 3 4 4 4 5 5 4 4 3 3 4 4
4 5 5 4 4 7 9 4 5 6 2 2 6 6 6 6 3 7 7 7 6 5 5 4 4 3 3 3 3 3 2 3 4 4 4 4 4 5 4 4 3 2 3 4
2 1 4 5 5 8 6 4 4 3 8 7 7 6 6 8 9 6 5 6 6 6 6 5 4 4 4 4 3 3 3 3 3 4 4 3 3 3 4 3 2 3 4 4
4 4 5 4 4 8 6 4 6 10 7 8 8 7 7 7 6 7 8 8 8 7 6 6 4 4 4 4 5 5 4 3 4 5 4 3 2 2 3 4 3 3 4 5
4 7 6 7 9 7 5 7 7 7 8 9 9 8 8 8 9 9 9 9 8 8 7 5 6 5 4 5 6 6 5 4 5 5 4 3 2 2 2 4 4 3 3 3
6 2 2 4 6 5 6 6 5 7 10 11 10 9 10 10 11 11 10 9 8 7 6 6 7 6 5 5 5 6 5 5 6 5 4 3 3 3 3 3 3 3 3 4
7 4 4 7 8 8 7 6 6 7 7 8 9 10 11 12 11 11 11 10 9 7 6 7 7 7 7 6 6 6 6 6 6 5 4 3 3 3 3 3 3 3 2 4
8 9 9 10 11 8 9 9 9 7 7 10 11 10 9 11 12 13 12 11 10 9 7 7 7 7 7 7 7 6 7 7 7 5 4 3 2 2 3 3 3 4 2 4
Wind_Direction
220 111 227 234 221 221 249 269 276 274 289 293 280 274 246 182 169 166 168 169 163 160 167 176 197 210 210 200 187 173 155 169 170 165 162 152 161 189 297 302 308 305 280 257
10 253 241 240 244 229 241 271 297 306 324 342 322 326 283 161 171 172 173 176 170 163 170 182 197 200 196 174 166 147 134 134 150 149 136 130 134 126 91 29 19 7 344 312
235 256 266 274 355 353 324 314 313 318 342 10 17 345 344 353 148 173 180 179 174 168 169 170 161 153 140 132 124 116 112 112 107 112 112 101 84 63 40 18 359 343 332 312
321 332 355 351 339 353 310 304 350 11 25 337 39 322 302 316 354 88 160 159 162 153 148 146 140 135 129 121 113 109 110 100 87 87 96 102 106 104 79 360 328 318 319 312
299 317 338 335 316 331 292 309 18 23 33 358 16 3 290 344 347 340 48 68 79 84 90 103 120 128 126 126 122 120 116 112 107 98 100 101 98 99 61 3 333 321 320 326
262 282 287 291 311 335 356 18 16 31 50 348 301 292 281 316 314 318 83 78 75 70 59 42 28 61 112 126 130 132 128 123 116 104 101 105 104 93 63 358 328 327 328 331
312 308 301 317 349 353 38 57 20 358 2 274 307 305 278 359 353 12 109 96 81 77 72 55 34 15 36 97 117 127 128 120 112 108 113 120 120 116 116 59 344 350 341 335
272 299 292 311 187 210 26 109 140 216 247 284 321 282 326 31 26 46 70 85 89 91 95 92 71 46 15 41 81 100 110 111 117 129 140 133 118 109 87 44 20 2 331 314
211 277 321 345 35 112 96 85 152 145 258 289 287 312 18 30 39 40 40 35 57 107 129 120 94 70 40 16 55 89 106 111 122 135 130 118 110 97 74 45 20 340 318 311
161 281 311 347 57 41 100 130 84 86 11 288 294 299 277 316 347 15 342 304 285 286 281 242 164 99 86 12 47 83 106 111 89 65 91 131 137 137 129 112 291 289 298 309
102 111 324 7 17 204 116 81 94 105 150 189 261 266 234 211 225 228 243 246 252 259 270 265 218 163 155 49 35 52 66 70 57 57 93 123 135 142 143 178 243 267 286 304
112 109 318 293 301 133 135 153 147 154 209 197 213 263 258 205 215 225 236 236 234 238 243 229 184 152 129 89 67 58 49 45 38 62 99 119 127 132 143 181 245 273 297 304
123 101 42 347 345 357 71 166 156 131 133 171 198 261 267 220 235 237 227 220 214 214 219 185 150 137 125 105 79 66 52 32 17 35 104 133 136 144 163 200 289 338 8 25
107 118 157 198 228 257 280 243 168 136 161 205 225 249 277 276 258 250 232 210 201 204 196 161 137 135 125 110 90 69 45 32 24 36 118 154 167 173 188 212 353 31 66 72
100 157 201 217 240 258 279 275 203 190 194 196 231 239 256 257 258 252 232 219 209 212 197 167 151 150 138 116 91 67 34 21 33 73 119 155 171 159 134 106 86 77 82 84
121 161 174 261 264 286 288 279 233 206 203 212 234 256 239 237 241 235 227 227 229 215 187 161 149 144 139 131 126 90 356 336 53 106 112 102 113 111 99 99 96 89 88 89
179 152 151 242 271 318 279 242 208 199 193 189 221 242 220 218 221 212 213 221 225 211 181 168 156 153 163 172 166 200 256 305 103 118 110 95 93 90 88 97 92 93 99 100
170 153 156 209 326 245 246 245 202 188 198 192 203 207 196 208 213 211 205 206 216 203 177 171 164 171 187 197 206 223 226 194 147 136 123 108 104 100 94 93 92 94 103 106
169 155 154 162 217 263 275 263 188 166 221 215 184 197 207 206 166 257 222 197 194 185 172 172 172 174 184 200 212 206 202 179 161 153 138 128 125 123 117 108 101 97 103 101
132 127 141 168 208 244 257 246 144 106 268 231 162 184 197 157 179 252 227 188 176 165 158 159 157 151 166 195 185 178 190 168 165 158 142 130 132 140 143 140 120 101 108 110
100 149 182 204 229 260 259 197 121 152 230 215 185 192 194 194 211 219 176 162 160 161 166 163 154 154 176 179 156 150 144 153 156 137 119 114 129 155 160 150 131 121 113 106
210 201 215 202 221 257 243 201 191 215 208 201 200 203 203 203 190 169 162 162 166 173 179 170 162 171 177 163 148 147 153 153 131 120 114 107 104 150 154 149 140 130 124 118
229 196 196 200 217 242 245 231 227 187 189 204 203 202 177 169 176 176 175 175 179 184 186 175 168 175 181 172 157 159 168 144 123 116 112 102 77 69 126 147 145 135 129 128
275 243 203 261 264 276 278 264 238 209 207 204 194 187 173 178 183 181 179 180 183 185 182 172 164 172 187 187 176 173 165 145 131 132 129 116 101 84 83 104 125 131 138 137
240 284 276 269 271 280 278 273 264 256 242 213 197 189 185 180 179 178 179 181 182 179 177 169 170 179 189 186 181 174 163 148 145 149 148 140 127 115 96 85 94 124 145 165
227 233 241 253 247 237 250 255 261 259 241 218 202 200 191 178 175 175 179 180 176 175 170 168 173 179 183 178 179 178 169 158 154 159 167 166 152 135 126 118 84 56 93 115